EW6460 Weather Reports


time (UTC)temp
C
wind
direction
speed
KPH
gust
KPH
rain 1hr
cm
rain 24hr
cm
rain mn
cm
humidity
%
barometer
mb
20190422203841 25 181 4.8 19.3 0.00 0.00 0.00 64 1016.5
20190422203734 25 167 4.8 19.3 0.00 0.00 0.00 63 1016.5
20190422203645 25 152 4.8 19.3 0.00 0.00 0.00 63 1016.5
20190422203533 25 172 3.2 19.3 0.00 0.00 0.00 63 1016.5
20190422203445 25 131 3.2 19.3 0.00 0.00 0.00 64 1016.5
20190422203339 25 155 4.8 19.3 0.00 0.00 0.00 63 1016.5
20190422203235 25 126 6.4 19.3 0.00 0.00 0.00 63 1016.4
20190422203147 25 128 3.2 14.5 0.00 0.00 0.00 64 1016.5
20190422203037 25 183 3.2 14.5 0.00 0.00 0.00 63 1016.5
20190422202947 25 156 4.8 14.5 0.00 0.00 0.00 63 1016.4
20190422202839 25 174 4.8 14.5 0.00 0.00 0.00 63 1016.4
20190422202732 25 195 3.2 19.3 0.00 0.00 0.00 64 1016.4
20190422202644 25 125 3.2 19.3 0.00 0.00 0.00 64 1016.4
20190422202534 25 170 4.8 19.3 0.00 0.00 0.00 64 1016.3
20190422202429 25 186 6.4 19.3 0.00 0.00 0.00 63 1016.3
20190422202341 25 172 4.8 19.3 0.00 0.00 0.00 65 1016.3
20190422202233 25 152 4.8 19.3 0.00 0.00 0.00 66 1016.4
20190422202145 25 144 3.2 19.3 0.00 0.00 0.00 65 1016.4
20190422202033 25 143 6.4 19.3 0.00 0.00 0.00 65 1016.4
20190422201946 25 288 6.4 19.3 0.00 0.00 0.00 65 1016.4
20190422201839 25 226 6.4 19.3 0.00 0.00 0.00 64 1016.3
20190422201731 25 135 4.8 19.3 0.00 0.00 0.00 64 1016.4
20190422201648 25 142 4.8 19.3 0.00 0.00 0.00 65 1016.4
20190422201537 25 172 4.8 19.3 0.00 0.00 0.00 65 1016.3
20190422201448 25 158 4.8 19.3 0.00 0.00 0.00 64 1016.4
20190422201341 25 187 4.8 19.3 0.00 0.00 0.00 64 1016.5
20190422201234 24 176 3.2 19.3 0.00 0.00 0.00 66 1016.5
20190422201147 24 160 4.8 19.3 0.00 0.00 0.00 66 1016.5
20190422201035 24 154 4.8 19.3 0.00 0.00 0.00 66 1016.5
20190422200947 24 141 3.2 14.5 0.00 0.00 0.00 66 1016.4
20190422200844 24 150 3.2 14.5 0.00 0.00 0.00 66 1016.4
20190422200736 24 154 3.2 14.5 0.00 0.00 0.00 66 1016.5
20190422200629 24 151 6.4 14.5 0.00 0.00 0.00 65 1016.4
20190422200538 24 181 4.8 14.5 0.00 0.00 0.00 64 1016.4
20190422200430 24 174 4.8 14.5 0.00 0.00 0.00 64 1016.4
20190422200343 24 200 4.8 14.5 0.00 0.00 0.00 64 1016.4
20190422200235 24 169 4.8 12.9 0.00 0.00 0.00 64 1016.4
20190422200148 24 182 4.8 12.9 0.00 0.00 0.00 63 1016.4
20190422200042 24 146 4.8 12.9 0.00 0.00 0.00 64 1016.4
20190422195932 24 127 4.8 12.9 0.00 0.00 0.00 63 1016.4
20190422195844 24 165 4.8 12.9 0.00 0.00 0.00 63 1016.4
20190422195736 24 172 4.8 12.9 0.00 0.00 0.00 63 1016.4
20190422195648 24 90 6.4 12.9 0.00 0.00 0.00 64 1016.5
20190422195535 24 233 6.4 12.9 0.00 0.00 0.00 64 1016.5
20190422195447 24 158 4.8 12.9 0.00 0.00 0.00 65 1016.5
20190422195340 24 175 3.2 12.9 0.00 0.00 0.00 66 1016.4
20190422195236 24 118 3.2 19.3 0.00 0.00 0.00 67 1016.4
20190422195149 24 148 4.8 19.3 0.00 0.00 0.00 66 1016.4
20190422195036 24 152 4.8 19.3 0.00 0.00 0.00 66 1016.4
20190422194948 24 94 3.2 19.3 0.00 0.00 0.00 66 1016.4
20190422194840 24 150 3.2 19.3 0.00 0.00 0.00 67 1016.4
20190422194733 24 161 3.2 19.3 0.00 0.00 0.00 66 1016.4
20190422194646 24 193 4.8 19.3 0.00 0.00 0.00 67 1016.4
20190422194538 24 255 6.4 19.3 0.00 0.00 0.00 65 1016.4
20190422194432 24 183 6.4 19.3 0.00 0.00 0.00 66 1016.5
20190422194344 25 152 4.8 19.3 0.00 0.00 0.00 66 1016.5
20190422194236 25 180 4.8 19.3 0.00 0.00 0.00 65 1016.4
20190422194129 25 167 3.2 12.9 0.00 0.00 0.00 65 1016.4
20190422194036 25 122 4.8 12.9 0.00 0.00 0.00 65 1016.4
20190422193929 25 181 4.8 12.9 0.00 0.00 0.00 64 1016.4
20190422193842 25 158 4.8 12.9 0.00 0.00 0.00 64 1016.4
20190422193735 25 186 6.4 12.9 0.00 0.00 0.00 64 1016.4
20190422193631 25 155 6.4 19.3 0.00 0.00 0.00 63 1016.4
20190422193538 25 127 6.4 19.3 0.00 0.00 0.00 63 1016.4
20190422193429 25 129 3.2 19.3 0.00 0.00 0.00 65 1016.3
20190422193342 25 176 3.2 19.3 0.00 0.00 0.00 66 1016.3
20190422193235 25 23 4.8 19.3 0.00 0.00 0.00 65 1016.4
20190422193147 25 159 4.8 19.3 0.00 0.00 0.00 65 1016.4
20190422193038 25 136 4.8 19.3 0.00 0.00 0.00 65 1016.3
20190422192948 25 181 6.4 19.3 0.00 0.00 0.00 65 1016.3
20190422192841 25 117 8.0 19.3 0.00 0.00 0.00 65 1016.3
20190422192737 24 179 4.8 14.5 0.00 0.00 0.00 66 1016.2
20190422192630 24 169 4.8 16.1 0.00 0.00 0.00 66 1016.2
20190422192539 24 173 4.8 16.1 0.00 0.00 0.00 66 1016.2
20190422192430 24 170 6.4 20.9 0.00 0.00 0.00 66 1016.3
20190422192343 24 164 6.4 20.9 0.00 0.00 0.00 66 1016.3
20190422192236 24 154 4.8 20.9 0.00 0.00 0.00 67 1016.3
20190422192129 24 165 4.8 20.9 0.00 0.00 0.00 67 1016.3
20190422192037 24 145 6.4 20.9 0.00 0.00 0.00 66 1016.3
20190422191933 24 214 6.4 20.9 0.00 0.00 0.00 67 1016.3
20190422191846 24 175 6.4 20.9 0.00 0.00 0.00 67 1016.3
20190422191739 23 151 6.4 20.9 0.00 0.00 0.00 66 1016.3
20190422191633 23 155 6.4 20.9 0.00 0.00 0.00 67 1016.3
20190422191542 23 121 3.2 16.1 0.00 0.00 0.00 68 1016.3
20190422191433 23 152 3.2 16.1 0.00 0.00 0.00 68 1016.2
20190422191346 23 163 4.8 16.1 0.00 0.00 0.00 68 1016.2
20190422191238 23 138 3.2 16.1 0.00 0.00 0.00 67 1016.2
20190422191135 23 182 4.8 16.1 0.00 0.00 0.00 67 1016.2
20190422191042 23 133 4.8 16.1 0.00 0.00 0.00 67 1016.2
20190422190936 23 159 4.8 16.1 0.00 0.00 0.00 67 1016.2
20190422190848 23 135 3.2 12.9 0.00 0.00 0.00 67 1016.3
20190422190740 23 158 4.8 12.9 0.00 0.00 0.00 67 1016.2
20190422190633 23 141 4.8 12.9 0.00 0.00 0.00 66 1016.3
20190422190540 23 175 4.8 12.9 0.00 0.00 0.00 66 1016.3
20190422190432 23 110 4.8 12.9 0.00 0.00 0.00 67 1016.3
20190422190329 23 167 3.2 12.9 0.00 0.00 0.00 67 1016.3
20190422190242 23 155 3.2 12.9 0.00 0.00 0.00 67 1016.3
20190422190136 23 171 3.2 14.5 0.00 0.00 0.00 67 1016.3
20190422190045 23 186 3.2 20.9 0.00 0.00 0.00 66 1016.3
20190422185936 23 193 1.6 20.9 0.00 0.00 0.00 67 1016.3
20190422185849 23 188 3.2 20.9 0.00 0.00 0.00 67 1016.4
20190422185742 23 120 6.4 20.9 0.00 0.00 0.00 66 1016.4
20190422185635 24 139 4.8 20.9 0.00 0.00 0.00 66 1016.4
20190422185546 24 164 4.8 20.9 0.00 0.00 0.00 66 1016.4
20190422185440 24 143 8.0 20.9 0.00 0.00 0.00 65 1016.4
20190422185331 24 136 6.4 20.9 0.00 0.00 0.00 64 1016.3
20190422185244 24 146 6.4 20.9 0.00 0.00 0.00 65 1016.3
20190422185137 24 155 4.8 16.1 0.00 0.00 0.00 65 1016.4
20190422185044 24 134 4.8 16.1 0.00 0.00 0.00 65 1016.4
20190422184936 24 176 4.8 16.1 0.00 0.00 0.00 65 1016.4
20190422184829 24 171 6.4 17.7 0.00 0.00 0.00 65 1016.5
20190422184746 24 203 3.2 17.7 0.00 0.00 0.00 66 1016.5
20190422184638 24 198 6.4 17.7 0.00 0.00 0.00 66 1016.4
20190422184547 24 173 6.4 17.7 0.00 0.00 0.00 65 1016.4
20190422184438 24 139 4.8 17.7 0.00 0.00 0.00 66 1016.4
20190422184331 23 174 3.2 17.7 0.00 0.00 0.00 69 1016.5
20190422184243 23 110 3.2 17.7 0.00 0.00 0.00 69 1016.5
20190422184136 23 188 4.8 17.7 0.00 0.00 0.00 68 1016.4
20190422184043 23 191 4.8 17.7 0.00 0.00 0.00 67 1016.4
20190422183940 23 190 4.8 12.9 0.00 0.00 0.00 68 1016.4
20190422183832 23 153 6.4 12.9 0.00 0.00 0.00 67 1016.5
20190422183744 23 161 4.8 12.9 0.00 0.00 0.00 68 1016.5
20190422183636 23 113 4.8 11.3 0.00 0.00 0.00 67 1016.5
20190422183544 23 86 3.2 11.3 0.00 0.00 0.00 67 1016.5
20190422183436 23 179 4.8 12.9 0.00 0.00 0.00 67 1016.5
20190422183329 23 214 6.4 12.9 0.00 0.00 0.00 66 1016.5
20190422183242 23 146 4.8 12.9 0.00 0.00 0.00 66 1016.5
20190422183140 23 129 4.8 12.9 0.00 0.00 0.00 68 1016.6
20190422183048 23 290 3.2 12.9 0.00 0.00 0.00 68 1016.6
20190422182939 23 162 3.2 16.1 0.00 0.00 0.00 68 1016.6
20190422182832 23 111 4.8 16.1 0.00 0.00 0.00 69 1016.7
20190422182744 23 162 4.8 16.1 0.00 0.00 0.00 67 1016.7
20190422182637 23 142 6.4 16.1 0.00 0.00 0.00 67 1016.7
20190422182544 23 188 6.4 16.1 0.00 0.00 0.00 66 1016.7
20190422182437 24 166 6.4 16.1 0.00 0.00 0.00 65 1016.8
20190422182333 24 164 4.8 16.1 0.00 0.00 0.00 66 1016.7
20190422182246 24 210 6.4 16.1 0.00 0.00 0.00 66 1016.7
20190422182137 24 178 4.8 16.1 0.00 0.00 0.00 66 1016.8
20190422182045 24 176 3.2 11.3 0.00 0.00 0.00 66 1016.8
20190422181937 24 178 3.2 12.9 0.00 0.00 0.00 68 1016.8
20190422181830 24 226 3.2 17.7 0.00 0.00 0.00 68 1016.9
20190422181743 24 134 3.2 17.7 0.00 0.00 0.00 68 1016.9
20190422181636 24 165 4.8 17.7 0.00 0.00 0.00 67 1016.9
20190422181545 24 176 4.8 17.7 0.00 0.00 0.00 67 1016.9
20190422181440 24 212 4.8 17.7 0.00 0.00 0.00 67 1016.9
20190422181333 24 169 4.8 17.7 0.00 0.00 0.00 66 1016.9
20190422181245 24 160 4.8 17.7 0.00 0.00 0.00 66 1016.9
20190422181137 24 81 6.4 17.7 0.00 0.00 0.00 66 1016.9
20190422181045 24 206 8.0 17.7 0.00 0.00 0.00 67 1017.0
20190422180937 24 188 4.8 17.7 0.00 0.00 0.00 66 1016.9
20190422180830 24 150 3.2 19.3 0.00 0.00 0.00 67 1017.0
20190422180743 24 77 4.8 19.3 0.00 0.00 0.00 66 1017.0
20190422180640 24 174 6.4 19.3 0.00 0.00 0.00 66 1017.1
20190422180548 24 167 6.4 19.3 0.00 0.00 0.00 66 1017.1
20190422180441 24 147 4.8 19.3 0.00 0.00 0.00 66 1017.1
20190422180334 24 156 3.2 19.3 0.00 0.00 0.00 66 1017.1
20190422180247 24 174 6.4 19.3 0.00 0.00 0.00 66 1017.1
20190422180140 24 167 8.0 19.3 0.00 0.00 0.00 66 1017.1
20190422180049 24 264 8.0 19.3 0.00 0.00 0.00 65 1017.2
20190422175940 24 160 8.0 14.5 0.00 0.00 0.00 66 1017.2
20190422175835 24 219 6.4 14.5 0.00 0.00 0.00 65 1017.2
20190422175747 24 172 4.8 12.9 0.00 0.00 0.00 66 1017.2
20190422175640 24 165 3.2 11.3 0.00 0.00 0.00 68 1017.3
20190422175547 24 164 4.8 11.3 0.00 0.00 0.00 67 1017.3
20190422175440 24 158 6.4 14.5 0.00 0.00 0.00 67 1017.3
20190422175333 24 134 6.4 14.5 0.00 0.00 0.00 67 1017.3
20190422175246 24 195 4.8 14.5 0.00 0.00 0.00 67 1017.3
20190422175140 24 176 6.4 14.5 0.00 0.00 0.00 67 1017.3
20190422175030 24 119 6.4 14.5 0.00 0.00 0.00 68 1017.3
20190422174943 24 175 6.4 16.1 0.00 0.00 0.00 68 1017.3
20190422174836 24 169 4.8 16.1 0.00 0.00 0.00 67 1017.2
20190422174749 24 150 4.8 16.1 0.00 0.00 0.00 66 1017.3
20190422174648 24 170 6.4 16.1 0.00 0.00 0.00 66 1017.3
20190422174552 24 106 3.2 16.1 0.00 0.00 0.00 68 1017.3
20190422174441 24 133 4.8 16.1 0.00 0.00 0.00 68 1017.2
20190422174333 24 198 4.8 16.1 0.00 0.00 0.00 67 1017.3
20190422174230 24 161 4.8 16.1 0.00 0.00 0.00 68 1017.3
20190422174141 24 141 4.8 16.1 0.00 0.00 0.00 67 1017.3
20190422174048 23 154 4.8 14.5 0.00 0.00 0.00 68 1017.3
20190422173941 23 177 8.0 14.5 0.00 0.00 0.00 67 1017.3
20190422173835 23 167 6.4 14.5 0.00 0.00 0.00 68 1017.2
20190422173746 23 144 6.4 14.5 0.00 0.00 0.00 68 1017.3
20190422173640 23 180 6.4 14.5 0.00 0.00 0.00 67 1017.2
20190422173547 23 122 3.2 14.5 0.00 0.00 0.00 68 1017.3
20190422173443 23 240 3.2 14.5 0.00 0.00 0.00 68 1017.3
20190422173336 23 158 4.8 17.7 0.00 0.00 0.00 68 1017.3
20190422173248 23 167 4.8 17.7 0.00 0.00 0.00 68 1017.3
20190422173143 23 176 4.8 17.7 0.00 0.00 0.00 68 1017.3
20190422173029 23 158 4.8 17.7 0.00 0.00 0.00 67 1017.3
20190422172942 23 127 6.4 17.7 0.00 0.00 0.00 68 1017.3
20190422172835 23 157 6.4 17.7 0.00 0.00 0.00 68 1017.3
20190422172747 23 145 6.4 17.7 0.00 0.00 0.00 67 1017.3
20190422172644 23 182 8.0 17.7 0.00 0.00 0.00 67 1017.3
20190422172532 23 147 6.4 17.7 0.00 0.00 0.00 67 1017.3
20190422172443 23 170 6.4 17.7 0.00 0.00 0.00 67 1017.3
20190422172336 23 142 6.4 17.7 0.00 0.00 0.00 67 1017.3
20190422172229 23 130 6.4 17.7 0.00 0.00 0.00 67 1017.2
20190422172142 23 162 4.8 17.7 0.00 0.00 0.00 67 1017.2
20190422172032 23 163 4.8 16.1 0.00 0.00 0.00 67 1017.3
20190422171944 23 181 6.4 16.1 0.00 0.00 0.00 66 1017.3
20190422171840 23 160 6.4 16.1 0.00 0.00 0.00 67 1017.3
20190422171733 23 151 4.8 16.1 0.00 0.00 0.00 68 1017.2
20190422171646 23 176 4.8 16.1 0.00 0.00 0.00 68 1017.2
20190422171536 23 176 3.2 11.3 0.00 0.00 0.00 67 1017.2
20190422171447 23 172 3.2 11.3 0.00 0.00 0.00 68 1017.2
20190422171340 23 278 4.8 16.1 0.00 0.00 0.00 68 1017.3
20190422171233 23 155 4.8 16.1 0.00 0.00 0.00 68 1017.2
20190422171146 23 149 4.8 16.1 0.00 0.00 0.00 68 1017.2
20190422171037 23 184 3.2 16.1 0.00 0.00 0.00 68 1017.2
20190422170929 23 162 4.8 16.1 0.00 0.00 0.00 68 1017.2
20190422170842 23 155 4.8 16.1 0.00 0.00 0.00 68 1017.2
20190422170735 23 145 4.8 16.1 0.00 0.00 0.00 68 1017.3
20190422170647 23 156 6.4 16.1 0.00 0.00 0.00 68 1017.2
20190422170536 23 88 4.8 16.1 0.00 0.00 0.00 68 1017.2
20190422170447 23 152 3.2 20.9 0.00 0.00 0.00 68 1017.2
20190422170340 23 165 4.8 20.9 0.00 0.00 0.00 67 1017.1
20190422170236 23 230 6.4 20.9 0.00 0.00 0.00 67 1017.2
20190422170147 23 176 4.8 20.9 0.00 0.00 0.00 68 1017.1
20190422170037 23 148 4.8 20.9 0.00 0.00 0.00 68 1017.0
20190422165947 23 163 6.4 20.9 0.00 0.00 0.00 68 1017.1
20190422165840 23 257 8.0 20.9 0.00 0.00 0.00 69 1017.0
20190422165732 23 163 8.0 20.9 0.00 0.00 0.00 68 1017.0
20190422165645 23 159 6.4 20.9 0.00 0.00 0.00 69 1017.0
20190422165533 23 178 3.2 14.5 0.00 0.00 0.00 70 1017.0
20190422165430 23 174 4.8 14.5 0.00 0.00 0.00 69 1017.0
20190422165343 23 203 4.8 14.5 0.00 0.00 0.00 69 1017.0
20190422165237 23 165 3.2 14.5 0.00 0.00 0.00 70 1017.0
20190422165148 23 128 4.8 14.5 0.00 0.00 0.00 69 1017.0
20190422165036 23 10 6.4 14.5 0.00 0.00 0.00 70 1017.0
20190422164948 23 179 6.4 14.5 0.00 0.00 0.00 69 1017.1
20190422164841 23 188 8.0 14.5 0.00 0.00 0.00 69 1017.1
20190422164733 23 146 6.4 14.5 0.00 0.00 0.00 70 1017.0
20190422164630 23 155 6.4 14.5 0.00 0.00 0.00 69 1017.2
20190422164539 23 115 6.4 16.1 0.00 0.00 0.00 70 1017.2
20190422164430 23 277 6.4 16.1 0.00 0.00 0.00 69 1017.1
20190422164342 23 156 4.8 16.1 0.00 0.00 0.00 69 1017.1
20190422164235 23 166 4.8 16.1 0.00 0.00 0.00 69 1017.1
20190422164148 23 139 4.8 16.1 0.00 0.00 0.00 69 1017.1
20190422164036 23 245 4.8 17.7 0.00 0.00 0.00 70 1017.1
20190422163948 23 181 4.8 17.7 0.00 0.00 0.00 71 1017.2
20190422163841 23 161 4.8 17.7 0.00 0.00 0.00 71 1017.2
20190422163737 23 158 4.8 17.7 0.00 0.00 0.00 70 1017.1
20190422163629 22 160 4.8 17.7 0.00 0.00 0.00 70 1017.2
20190422163537 22 155 6.4 17.7 0.00 0.00 0.00 70 1017.2
20190422163430 22 152 6.4 20.9 0.00 0.00 0.00 70 1017.3
20190422163343 22 123 6.4 20.9 0.00 0.00 0.00 70 1017.3
20190422163235 22 171 8.0 20.9 0.00 0.00 0.00 70 1017.2
20190422163147 22 174 4.8 20.9 0.00 0.00 0.00 71 1017.1
20190422163036 22 129 6.4 20.9 0.00 0.00 0.00 71 1017.2
20190422162932 22 137 6.4 20.9 0.00 0.00 0.00 71 1017.3
20190422162844 22 176 4.8 20.9 0.00 0.00 0.00 71 1017.3
20190422162736 22 168 4.8 20.9 0.00 0.00 0.00 71 1017.3
20190422162648 22 224 6.4 20.9 0.00 0.00 0.00 71 1017.3
20190422162537 22 104 6.4 20.9 0.00 0.00 0.00 71 1017.3
20190422162448 22 68 4.8 14.5 0.00 0.00 0.00 72 1017.3
20190422162340 22 183 4.8 14.5 0.00 0.00 0.00 73 1017.3
20190422162233 22 173 1.6 14.5 0.00 0.00 0.00 74 1017.3
20190422162129 22 181 3.2 14.5 0.00 0.00 0.00 74 1017.5
20190422162037 22 197 4.8 14.5 0.00 0.00 0.00 73 1017.5
20190422161930 22 112 6.4 14.5 0.00 0.00 0.00 73 1017.5
20190422161843 22 240 4.8 14.5 0.00 0.00 0.00 73 1017.5
20190422161736 22 172 4.8 12.9 0.00 0.00 0.00 74 1017.5
20190422161648 22 165 4.8 12.9 0.00 0.00 0.00 74 1017.5
20190422161538 22 220 4.8 12.9 0.00 0.00 0.00 75 1017.5
20190422161448 22 269 4.8 12.9 0.00 0.00 0.00 76 1017.5
20190422161345 21 154 4.8 12.9 0.00 0.00 0.00 76 1017.5
20190422161237 21 156 4.8 12.9 0.00 0.00 0.00 76 1017.5
20190422161130 21 247 6.4 16.1 0.00 0.00 0.00 76 1017.5
20190422161038 21 165 6.4 16.1 0.00 0.00 0.00 76 1017.5
20190422160930 21 179 4.8 16.1 0.00 0.00 0.00 76 1017.5
20190422160843 21 160 4.8 16.1 0.00 0.00 0.00 76 1017.5
20190422160735 21 170 4.8 16.1 0.00 0.00 0.00 76 1017.4
20190422160648 21 180 4.8 16.1 0.00 0.00 0.00 75 1017.4
20190422160540 21 110 6.4 16.1 0.00 0.00 0.00 75 1017.4
20190422160432 21 155 6.4 16.1 0.00 0.00 0.00 76 1017.4
20190422160344 21 186 8.0 16.1 0.00 0.00 0.00 75 1017.4
20190422160237 21 135 4.8 16.1 0.00 0.00 0.00 76 1017.4
20190422160130 21 164 4.8 16.1 0.00 0.00 0.00 76 1017.3
20190422160039 21 158 4.8 16.1 0.00 0.00 0.00 76 1017.3
20190422155929 21 162 4.8 11.3 0.00 0.00 0.00 76 1017.3
20190422155842 21 176 4.8 12.9 0.00 0.00 0.00 76 1017.3
20190422155738 21 172 4.8 12.9 0.00 0.00 0.00 76 1017.3
20190422155633 21 162 4.8 12.9 0.00 0.00 0.00 76 1017.3
20190422155540 21 146 3.2 12.9 0.00 0.00 0.00 76 1017.3
20190422155432 21 129 4.8 12.9 0.00 0.00 0.00 76 1017.2
20190422155344 21 169 4.8 19.3 0.00 0.00 0.00 76 1017.2
20190422155237 21 155 3.2 19.3 0.00 0.00 0.00 76 1017.2
20190422155129 21 153 4.8 19.3 0.00 0.00 0.00 76 1017.2
20190422155037 21 184 6.4 19.3 0.00 0.00 0.00 75 1017.2
20190422154934 21 163 6.4 19.3 0.00 0.00 0.00 75 1017.1
20190422154847 21 79 6.4 19.3 0.00 0.00 0.00 74 1017.2
20190422154740 21 176 4.8 19.3 0.00 0.00 0.00 75 1017.2
20190422154634 21 184 8.0 19.3 0.00 0.00 0.00 74 1017.2
20190422154542 21 178 8.0 19.3 0.00 0.00 0.00 74 1017.2
20190422154434 21 148 4.8 14.5 0.00 0.00 0.00 75 1017.2
20190422154345 21 159 3.2 14.5 0.00 0.00 0.00 76 1017.2
20190422154238 21 167 4.8 14.5 0.00 0.00 0.00 75 1017.3
20190422154135 21 134 4.8 14.5 0.00 0.00 0.00 76 1017.3
20190422154042 21 160 3.2 14.5 0.00 0.00 0.00 77 1017.3
20190422153935 21 148 3.2 14.5 0.00 0.00 0.00 78 1017.2
20190422153847 21 170 3.2 14.5 0.00 0.00 0.00 78 1017.2
20190422153739 21 156 4.8 14.5 0.00 0.00 0.00 77 1017.2
20190422153632 21 162 4.8 12.9 0.00 0.00 0.00 77 1017.2
20190422153538 21 165 4.8 14.5 0.00 0.00 0.00 77 1017.2
20190422153432 21 195 3.2 14.5 0.00 0.00 0.00 77 1017.2
20190422153344 21 137 3.2 14.5 0.00 0.00 0.00 77 1017.2
20190422153240 21 153 4.8 14.5 0.00 0.00 0.00 77 1017.3
20190422153134 21 150 4.8 14.5 0.00 0.00 0.00 77 1017.3
20190422153042 21 182 3.2 20.9 0.00 0.00 0.00 78 1017.4
20190422152935 21 174 4.8 20.9 0.00 0.00 0.00 77 1017.3
20190422152847 21 153 6.4 20.9 0.00 0.00 0.00 77 1017.3
20190422152739 21 179 6.4 20.9 0.00 0.00 0.00 76 1017.3
20190422152632 21 179 6.4 20.9 0.00 0.00 0.00 77 1017.2
20190422152539 21 213 6.4 20.9 0.00 0.00 0.00 77 1017.2
20190422152437 21 139 6.4 20.9 0.00 0.00 0.00 75 1017.2
20190422152330 21 188 8.0 20.9 0.00 0.00 0.00 75 1017.2
20190422152243 21 158 8.0 20.9 0.00 0.00 0.00 75 1017.2
20190422152137 21 136 4.8 19.3 0.00 0.00 0.00 76 1017.2
20190422152045 21 155 4.8 19.3 0.00 0.00 0.00 76 1017.1
20190422151937 21 91 6.4 19.3 0.00 0.00 0.00 77 1017.1
20190422151830 21 145 6.4 19.3 0.00 0.00 0.00 78 1017.1
20190422151743 21 167 6.4 19.3 0.00 0.00 0.00 78 1017.1
20190422151639 21 174 6.4 19.3 0.00 0.00 0.00 78 1017.1
20190422151548 21 161 4.8 17.7 0.00 0.00 0.00 79 1017.1
20190422151438 21 204 6.4 17.7 0.00 0.00 0.00 79 1017.1
20190422151331 21 153 6.4 17.7 0.00 0.00 0.00 79 1017.1
20190422151244 21 173 6.4 17.7 0.00 0.00 0.00 79 1017.1
20190422151137 21 150 8.0 17.7 0.00 0.00 0.00 78 1017.1
20190422151044 21 217 6.4 17.7 0.00 0.00 0.00 78 1017.1
20190422150937 21 179 4.8 14.5 0.00 0.00 0.00 79 1017.1
20190422150833 21 164 4.8 14.5 0.00 0.00 0.00 79 1017.2
20190422150745 21 151 6.4 14.5 0.00 0.00 0.00 79 1017.2
20190422150638 21 159 4.8 14.5 0.00 0.00 0.00 79 1017.1
20190422150544 21 173 4.8 14.5 0.00 0.00 0.00 79 1017.1
20190422150437 21 190 3.2 12.9 0.00 0.00 0.00 79 1017.1
20190422150330 21 167 4.8 12.9 0.00 0.00 0.00 79 1017.2
20190422150243 21 141 6.4 12.9 0.00 0.00 0.00 79 1017.2
20190422150136 21 134 6.4 12.9 0.00 0.00 0.00 79 1017.2
20190422150049 21 184 6.4 12.9 0.00 0.00 0.00 79 1017.2
20190422145939 21 167 6.4 12.9 0.00 0.00 0.00 79 1017.1
20190422145831 21 173 4.8 12.9 0.00 0.00 0.00 79 1017.3
20190422145744 21 159 4.8 16.1 0.00 0.00 0.00 80 1017.3
20190422145638 21 221 6.4 16.1 0.00 0.00 0.00 80 1017.2
20190422145544 21 82 6.4 16.1 0.00 0.00 0.00 80 1017.2
20190422145437 20 154 6.4 16.1 0.00 0.00 0.00 80 1017.2
20190422145330 20 81 6.4 16.1 0.00 0.00 0.00 81 1017.2
20190422145247 20 196 6.4 16.1 0.00 0.00 0.00 81 1017.2
20190422145139 20 213 4.8 16.1 0.00 0.00 0.00 82 1017.3
20190422145047 20 143 6.4 16.1 0.00 0.00 0.00 82 1017.3
20190422144940 20 146 6.4 16.1 0.00 0.00 0.00 82 1017.2
20190422144833 20 158 6.4 14.5 0.00 0.00 0.00 82 1017.2
20190422144744 20 163 8.0 16.1 0.00 0.00 0.00 82 1017.2
20190422144637 20 160 6.4 17.7 0.00 0.00 0.00 83 1017.2
20190422144545 20 148 4.8 17.7 0.00 0.00 0.00 83 1017.2
20190422144441 20 176 4.8 17.7 0.00 0.00 0.00 84 1017.2
20190422144332 20 172 4.8 17.7 0.00 0.00 0.00 84 1017.2
20190422144243 20 160 6.4 17.7 0.00 0.00 0.00 84 1017.2
20190422144135 20 150 6.4 17.7 0.00 0.00 0.00 83 1017.1
20190422144043 20 164 6.4 17.7 0.00 0.00 0.00 83 1017.1
20190422143936 20 177 8.0 17.7 0.00 0.00 0.00 83 1017.1
20190422143730 20 157 4.8 14.5 0.00 0.00 0.00 85 1017.1
20190422143647 20 210 3.2 14.5 0.00 0.00 0.00 85 1017.1
20190422143534 20 155 6.4 14.5 0.00 0.00 0.00 84 1017.1
20190422143447 20 167 8.0 14.5 0.00 0.00 0.00 84 1017.1
20190422143339 20 169 6.4 14.5 0.00 0.00 0.00 84 1017.1
20190422143232 19 234 8.0 20.9 0.00 0.00 0.00 84 1017.1
20190422143146 19 174 6.4 20.9 0.00 0.00 0.00 84 1017.1
20190422143031 19 198 6.4 20.9 0.00 0.00 0.00 85 1017.1
20190422142944 19 150 6.4 20.9 0.00 0.00 0.00 85 1017.1
20190422142840 19 162 6.4 20.9 0.00 0.00 0.00 85 1017.1
20190422142733 19 183 6.4 20.9 0.00 0.00 0.00 85 1017.1
20190422142645 19 179 4.8 20.9 0.00 0.00 0.00 85 1017.1
20190422142534 19 178 6.4 20.9 0.00 0.00 0.00 85 1017.0
20190422142446 19 251 8.0 20.9 0.00 0.00 0.00 86 1017.0
20190422142338 19 176 4.8 16.1 0.00 0.00 0.00 86 1017.0
20190422142231 19 136 3.2 16.1 0.00 0.00 0.00 87 1017.0
20190422142143 19 171 3.2 16.1 0.00 0.00 0.00 87 1017.0
20190422142034 19 149 4.8 17.7 0.00 0.00 0.00 86 1017.0
20190422141947 19 157 4.8 17.7 0.00 0.00 0.00 86 1017.0
20190422141842 19 215 6.4 17.7 0.00 0.00 0.00 86 1016.9
20190422141732 19 163 6.4 17.7 0.00 0.00 0.00 86 1016.9
20190422141645 19 199 8.0 17.7 0.00 0.00 0.00 86 1016.9
20190422141535 19 147 8.0 17.7 0.00 0.00 0.00 86 1016.9
20190422141446 19 167 8.0 17.7 0.00 0.00 0.00 85 1016.9
20190422141339 19 160 8.0 17.7 0.00 0.00 0.00 86 1016.9
20190422141231 19 162 6.4 16.1 0.00 0.00 0.00 86 1016.9
20190422141142 19 102 3.2 16.1 0.00 0.00 0.00 87 1016.9
20190422141030 19 163 3.2 16.1 0.00 0.00 0.00 87 1016.9
20190422140942 19 172 4.8 16.1 0.00 0.00 0.00 87 1016.9
20190422140834 19 159 6.4 16.1 0.00 0.00 0.00 87 1016.9
20190422140747 18 106 8.0 16.1 0.00 0.00 0.00 87 1016.9
20190422140639 18 158 8.0 16.1 0.00 0.00 0.00 87 1016.9
20190422140547 18 281 9.7 16.1 0.00 0.00 0.00 87 1016.9
20190422140440 18 166 6.4 16.1 0.00 0.00 0.00 87 1016.9
20190422140335 18 160 4.8 16.1 0.00 0.00 0.00 88 1016.9
20190422140247 18 153 6.4 16.1 0.00 0.00 0.00 88 1016.9
20190422140140 18 120 6.4 16.1 0.00 0.00 0.00 88 1017.0
20190422140049 18 188 4.8 14.5 0.00 0.00 0.00 88 1016.9
20190422135939 18 101 4.8 14.5 0.00 0.00 0.00 88 1017.0
20190422135831 18 183 4.8 14.5 0.00 0.00 0.00 88 1017.0
20190422135743 18 238 3.2 14.5 0.00 0.00 0.00 88 1017.0
20190422135635 18 162 4.8 14.5 0.00 0.00 0.00 88 1017.0
20190422135547 18 169 4.8 14.5 0.00 0.00 0.00 88 1016.9
20190422135439 18 165 4.8 14.5 0.00 0.00 0.00 88 1016.9
20190422135331 18 166 6.4 14.5 0.00 0.00 0.00 88 1016.8
20190422135244 18 120 6.4 12.9 0.00 0.00 0.00 89 1016.8
20190422135136 18 40 4.8 12.9 0.00 0.00 0.00 89 1016.8
20190422135043 18 158 4.8 12.9 0.00 0.00 0.00 89 1016.8
20190422134936 18 158 4.8 12.9 0.00 0.00 0.00 89 1016.9
20190422134847 18 158 4.8 12.9 0.00 0.00 0.00 89 1016.9
20190422134743 18 149 4.8 12.9 0.00 0.00 0.00 89 1016.9
20190422134635 18 150 4.8 11.3 0.00 0.00 0.00 89 1016.8
20190422134545 18 172 4.8 11.3 0.00 0.00 0.00 89 1016.8
20190422134436 18 165 4.8 11.3 0.00 0.00 0.00 89 1016.8
20190422134347 18 177 4.8 11.3 0.00 0.00 0.00 90 1016.8
20190422134240 18 172 4.8 11.3 0.00 0.00 0.00 90 1016.8
20190422134133 18 169 3.2 9.7 0.00 0.00 0.00 90 1016.8
20190422134040 18 157 3.2 9.7 0.00 0.00 0.00 90 1016.8
20190422133938 18 162 4.8 9.7 0.00 0.00 0.00 90 1016.8
20190422133830 18 165 4.8 9.7 0.00 0.00 0.00 90 1016.8
20190422133742 18 150 4.8 9.7 0.00 0.00 0.00 90 1016.8
20190422133635 18 176 4.8 12.9 0.00 0.00 0.00 90 1016.8
20190422133542 18 182 3.2 12.9 0.00 0.00 0.00 90 1016.8
20190422133435 18 179 3.2 12.9 0.00 0.00 0.00 90 1016.8
20190422133348 18 165 3.2 12.9 0.00 0.00 0.00 90 1016.8
20190422133240 18 216 4.8 12.9 0.00 0.00 0.00 90 1016.8
20190422133137 18 162 3.2 12.9 0.00 0.00 0.00 90 1016.8
20190422133047 18 169 3.2 12.9 0.00 0.00 0.00 90 1016.8
20190422132937 18 180 4.8 12.9 0.00 0.00 0.00 90 1016.7
20190422132830 18 192 4.8 12.9 0.00 0.00 0.00 91 1016.8
20190422132743 18 160 3.2 11.3 0.00 0.00 0.00 91 1016.8
20190422132635 18 119 1.6 11.3 0.00 0.00 0.00 91 1016.7
20190422132543 18 153 3.2 11.3 0.00 0.00 0.00 91 1016.7
20190422132436 18 128 4.8 11.3 0.00 0.00 0.00 91 1016.7
20190422132333 18 176 4.8 11.3 0.00 0.00 0.00 91 1016.7
20190422132245 18 155 3.2 11.3 0.00 0.00 0.00 91 1016.7
20190422132138 18 158 1.6 12.9 0.00 0.00 0.00 91 1016.7
20190422132045 18 140 3.2 12.9 0.00 0.00 0.00 91 1016.7
20190422131937 18 167 3.2 12.9 0.00 0.00 0.00 91 1016.7
20190422131830 18 160 3.2 12.9 0.00 0.00 0.00 91 1016.7
20190422131743 18 175 4.8 12.9 0.00 0.00 0.00 91 1016.7
20190422131636 18 171 3.2 12.9 0.00 0.00 0.00 92 1016.6
20190422131545 18 207 3.2 12.9 0.00 0.00 0.00 92 1016.6
20190422131440 18 176 4.8 12.9 0.00 0.00 0.00 92 1016.6
20190422131332 18 181 4.8 12.9 0.00 0.00 0.00 92 1016.6
20190422131245 18 150 3.2 14.5 0.00 0.00 0.00 92 1016.6
20190422131137 18 147 4.8 14.5 0.00 0.00 0.00 92 1016.6
20190422131044 18 154 3.2 14.5 0.00 0.00 0.00 92 1016.6
20190422130938 18 167 4.8 14.5 0.00 0.00 0.00 92 1016.6
20190422130830 18 130 4.8 14.5 0.00 0.00 0.00 92 1016.6
20190422130743 18 122 3.2 14.5 0.00 0.00 0.00 92 1016.6
20190422130640 18 150 4.8 14.5 0.00 0.00 0.00 92 1016.5
20190422130548 18 158 6.4 14.5 0.00 0.00 0.00 92 1016.5
20190422130440 18 148 6.4 14.5 0.00 0.00 0.00 92 1016.5
20190422130333 18 177 4.8 11.3 0.00 0.00 0.00 92 1016.4
20190422130246 18 169 4.8 11.3 0.00 0.00 0.00 92 1016.4
20190422130138 17 153 4.8 11.3 0.00 0.00 0.00 92 1016.4
20190422130048 17 153 4.8 11.3 0.00 0.00 0.00 92 1016.4
20190422125938 17 172 6.4 11.3 0.00 0.00 0.00 92 1016.4
20190422125835 17 177 4.8 9.7 0.00 0.00 0.00 92 1016.4
20190422125747 17 158 4.8 9.7 0.00 0.00 0.00 92 1016.4
20190422125640 17 168 3.2 9.7 0.00 0.00 0.00 92 1016.5
20190422125547 17 166 4.8 9.7 0.00 0.00 0.00 92 1016.4
20190422125440 17 180 4.8 9.7 0.00 0.00 0.00 92 1016.4
20190422125332 17 170 4.8 9.7 0.00 0.00 0.00 92 1016.4
20190422125245 17 176 4.8 9.7 0.00 0.00 0.00 92 1016.4
20190422125138 17 128 4.8 12.9 0.00 0.00 0.00 92 1016.4
20190422125030 17 195 6.4 12.9 0.00 0.00 0.00 92 1016.3
20190422124942 17 209 3.2 12.9 0.00 0.00 0.00 92 1016.3
20190422124834 17 138 3.2 12.9 0.00 0.00 0.00 92 1016.3
20190422124747 17 178 3.2 12.9 0.00 0.00 0.00 92 1016.3
20190422124639 17 155 1.6 12.9 0.00 0.00 0.00 92 1016.3
20190422124549 17 179 3.2 12.9 0.00 0.00 0.00 92 1016.4
20190422124440 17 136 4.8 12.9 0.00 0.00 0.00 92 1016.3
20190422124333 17 163 3.2 12.9 0.00 0.00 0.00 92 1016.3
20190422124231 17 158 1.6 12.9 0.00 0.00 0.00 92 1016.3
20190422124143 17 176 1.6 12.9 0.00 0.00 0.00 92 1016.3
20190422124030 17 164 3.2 14.5 0.00 0.00 0.00 93 1016.1
20190422123943 17 179 1.6 14.5 0.00 0.00 0.00 93 1016.1
20190422123835 17 165 3.2 14.5 0.00 0.00 0.00 93 1016.1
20190422123748 17 141 4.8 14.5 0.00 0.00 0.00 93 1016.1
20190422123641 17 174 4.8 14.5 0.00 0.00 0.00 93 1016.1
20190422123529 17 174 4.8 14.5 0.00 0.00 0.00 93 1016.0
20190422123446 17 165 4.8 14.5 0.00 0.00 0.00 93 1016.0
20190422123338 17 163 4.8 14.5 0.00 0.00 0.00 93 1016.0
20190422123231 17 198 4.8 12.9 0.00 0.00 0.00 93 1016.0
20190422123146 17 176 4.8 12.9 0.00 0.00 0.00 93 1016.0
20190422123031 17 160 4.8 12.9 0.00 0.00 0.00 93 1016.0
20190422122944 17 169 4.8 12.9 0.00 0.00 0.00 93 1016.0
20190422122837 17 151 4.8 11.3 0.00 0.00 0.00 93 1016.0
20190422122730 17 190 3.2 16.1 0.00 0.00 0.00 93 1015.9
20190422122647 17 181 3.2 16.1 0.00 0.00 0.00 93 1015.9
20190422122534 17 134 3.2 16.1 0.00 0.00 0.00 93 1015.9
20190422122447 17 165 4.8 16.1 0.00 0.00 0.00 93 1015.9
20190422122340 17 155 3.2 16.1 0.00 0.00 0.00 93 1015.8
20190422122233 17 167 0.0 16.1 0.00 0.00 0.00 93 1015.8
20190422122146 17 152 1.6 16.1 0.00 0.00 0.00 93 1015.8
20190422122034 17 157 4.8 16.1 0.00 0.00 0.00 93 1015.7
20190422121947 17 148 6.4 16.1 0.00 0.00 0.00 93 1015.7
20190422121844 17 136 4.8 16.1 0.00 0.00 0.00 93 1015.7
20190422121736 17 159 3.2 11.3 0.00 0.00 0.00 93 1015.7
20190422121650 17 188 3.2 11.3 0.00 0.00 0.00 93 1015.7
20190422121533 17 162 3.2 11.3 0.00 0.00 0.00 93 1015.6
20190422121445 17 177 3.2 11.3 0.00 0.00 0.00 93 1015.6
20190422121339 17 221 3.2 11.3 0.00 0.00 0.00 93 1015.6
20190422121230 17 160 3.2 11.3 0.00 0.00 0.00 93 1015.6
20190422121143 17 178 3.2 11.3 0.00 0.00 0.00 93 1015.6
20190422121035 17 173 3.2 11.3 0.00 0.00 0.00 92 1015.6
20190422120947 17 159 4.8 11.3 0.00 0.00 0.00 92 1015.6
20190422120840 17 170 4.8 16.1 0.00 0.00 0.00 92 1015.5
20190422120731 17 160 3.2 16.1 0.00 0.00 0.00 92 1015.5
20190422120644 17 155 1.6 16.1 0.00 0.00 0.00 92 1015.5
20190422120532 17 151 1.6 16.1 0.00 0.00 0.00 92 1015.4
20190422120445 17 167 1.6 16.1 0.00 0.00 0.00 92 1015.4
20190422120338 17 157 3.2 16.1 0.00 0.00 0.00 92 1015.4
20190422120234 17 162 4.8 16.1 0.00 0.00 0.00 92 1015.4
20190422120145 17 146 6.4 16.1 0.00 0.00 0.00 92 1015.4
20190422120035 17 184 4.8 16.1 0.00 0.00 0.00 92 1015.4
20190422115945 17 158 4.8 14.5 0.00 0.00 0.00 92 1015.5
20190422115838 17 165 4.8 14.5 0.00 0.00 0.00 92 1015.5
20190422115731 17 167 4.8 14.5 0.00 0.00 0.00 92 1015.5
20190422115644 17 146 4.8 14.5 0.00 0.00 0.00 92 1015.5
20190422115531 17 150 6.4 14.5 0.00 0.00 0.00 92 1015.4
20190422115444 17 172 6.4 14.5 0.00 0.00 0.00 92 1015.4
20190422115341 17 162 4.8 14.5 0.00 0.00 0.00 92 1015.4
20190422115234 17 161 3.2 9.7 0.00 0.00 0.00 92 1015.5
20190422115146 17 168 3.2 9.7 0.00 0.00 0.00 92 1015.4
20190422115034 17 171 3.2 16.1 0.00 0.00 0.00 92 1015.5
20190422114946 17 150 3.2 16.1 0.00 0.00 0.00 92 1015.5
20190422114838 17 178 4.8 16.1 0.00 0.00 0.00 92 1015.5
20190422114731 17 187 3.2 16.1 0.00 0.00 0.00 92 1015.4
20190422114644 17 160 3.2 16.1 0.00 0.00 0.00 92 1015.4
20190422114537 17 159 4.8 16.1 0.00 0.00 0.00 92 1015.4
20190422114447 17 187 4.8 16.1 0.00 0.00 0.00 92 1015.4
20190422114340 17 161 6.4 16.1 0.00 0.00 0.00 92 1015.4
20190422114234 17 147 6.4 16.1 0.00 0.00 0.00 92 1015.4
20190422114146 17 220 3.2 8.0 0.00 0.00 0.00 92 1015.4
20190422114035 17 167 1.6 8.0 0.00 0.00 0.00 92 1015.3
20190422113947 17 157 1.6 8.0 0.00 0.00 0.00 92 1015.3
20190422113840 17 169 1.6 11.3 0.00 0.00 0.00 92 1015.3
20190422113735 17 141 3.2 12.9 0.00 0.00 0.00 92 1015.3
20190422113648 17 155 4.8 12.9 0.00 0.00 0.00 92 1015.3
20190422113538 17 250 3.2 12.9 0.00 0.00 0.00 92 1015.4
20190422113429 17 214 1.6 12.9 0.00 0.00 0.00 92 1015.4
20190422113342 17 190 3.2 12.9 0.00 0.00 0.00 92 1015.4
20190422113235 17 162 4.8 12.9 0.00 0.00 0.00 92 1015.4
20190422113130 17 172 4.8 12.9 0.00 0.00 0.00 92 1015.3
20190422113038 17 160 4.8 12.9 0.00 0.00 0.00 92 1015.3
20190422112933 17 153 6.4 12.9 0.00 0.00 0.00 92 1015.4
20190422112846 17 128 6.4 12.9 0.00 0.00 0.00 92 1015.3
20190422112739 17 156 4.8 12.9 0.00 0.00 0.00 92 1015.4
20190422112630 17 164 3.2 12.9 0.00 0.00 0.00 92 1015.3
20190422112538 17 150 3.2 12.9 0.00 0.00 0.00 92 1015.3
20190422112430 17 60 3.2 12.9 0.00 0.00 0.00 92 1015.4
20190422112343 17 177 3.2 11.3 0.00 0.00 0.00 92 1015.4
20190422112237 17 160 3.2 11.3 0.00 0.00 0.00 92 1015.4
20190422112133 17 176 4.8 11.3 0.00 0.00 0.00 92 1015.4
20190422112041 17 167 6.4 12.9 0.00 0.00 0.00 92 1015.3
20190422111934 17 191 4.8 12.9 0.00 0.00 0.00 92 1015.4
20190422111846 17 176 3.2 12.9 0.00 0.00 0.00 92 1015.4
20190422111739 17 166 4.8 12.9 0.00 0.00 0.00 92 1015.4
20190422111631 17 176 4.8 12.9 0.00 0.00 0.00 92 1015.4
20190422111541 17 165 3.2 12.9 0.00 0.00 0.00 92 1015.4
20190422111429 17 160 3.2 12.9 0.00 0.00 0.00 92 1015.4
20190422111346 17 182 3.2 12.9 0.00 0.00 0.00 92 1015.4
20190422111240 17 189 4.8 12.9 0.00 0.00 0.00 92 1015.4
20190422111132 17 181 4.8 11.3 0.00 0.00 0.00 92 1015.4
20190422111040 17 131 3.2 8.0 0.00 0.00 0.00 92 1015.4
20190422110933 17 173 3.2 8.0 0.00 0.00 0.00 92 1015.3
20190422110846 17 178 3.2 8.0 0.00 0.00 0.00 92 1015.3
20190422110739 17 153 3.2 8.0 0.00 0.00 0.00 92 1015.3
20190422110632 17 181 3.2 8.0 0.00 0.00 0.00 92 1015.4
20190422110543 17 150 3.2 11.3 0.00 0.00 0.00 92 1015.4
20190422110435 17 178 3.2 11.3 0.00 0.00 0.00 92 1015.3
20190422110347 17 165 3.2 11.3 0.00 0.00 0.00 92 1015.3
20190422110240 17 150 1.6 11.3 0.00 0.00 0.00 92 1015.3
20190422110133 17 150 1.6 11.3 0.00 0.00 0.00 92 1015.3
20190422110040 17 160 1.6 11.3 0.00 0.00 0.00 92 1015.3
20190422105929 17 229 1.6 19.3 0.00 0.00 0.00 92 1015.2
20190422105843 17 186 4.8 19.3 0.00 0.00 0.00 92 1015.2
20190422105740 17 136 4.8 19.3 0.00 0.00 0.00 92 1015.2
20190422105634 17 141 3.2 19.3 0.00 0.00 0.00 92 1015.2
20190422105541 17 164 1.6 19.3 0.00 0.00 0.00 92 1015.1
20190422105434 17 162 1.6 19.3 0.00 0.00 0.00 92 1015.1
20190422105346 17 211 3.2 19.3 0.00 0.00 0.00 92 1015.1
20190422105239 17 172 6.4 19.3 0.00 0.00 0.00 92 1015.1
20190422105131 17 136 4.8 19.3 0.00 0.00 0.00 92 1015.2
20190422105038 17 127 3.2 11.3 0.00 0.00 0.00 92 1015.2
20190422104935 17 156 3.2 9.7 0.00 0.00 0.00 92 1015.3
20190422104848 17 101 4.8 11.3 0.00 0.00 0.00 92 1015.3
20190422104741 17 159 3.2 11.3 0.00 0.00 0.00 92 1015.3
20190422104634 17 155 3.2 11.3 0.00 0.00 0.00 92 1015.3
20190422104542 17 175 3.2 11.3 0.00 0.00 0.00 92 1015.3
20190422104433 17 186 1.6 11.3 0.00 0.00 0.00 92 1015.3
20190422104346 17 198 3.2 11.3 0.00 0.00 0.00 92 1015.3
20190422104239 17 152 1.6 11.3 0.00 0.00 0.00 92 1015.3
20190422104135 17 167 4.8 12.9 0.00 0.00 0.00 92 1015.3
20190422104043 17 167 4.8 12.9 0.00 0.00 0.00 92 1015.3
20190422103955 17 179 3.2 12.9 0.00 0.00 0.00 92 1015.3
20190422103908 17 205 3.2 17.7 0.00 0.00 0.00 92 1015.3
20190422103740 17 159 1.6 17.7 0.00 0.00 0.00 92 1015.2
20190422103632 17 158 3.2 17.7 0.00 0.00 0.00 92 1015.3
20190422103540 17 178 3.2 17.7 0.00 0.00 0.00 92 1015.3
20190422103433 17 144 4.8 17.7 0.00 0.00 0.00 92 1015.3
20190422103346 17 221 4.8 17.7 0.00 0.00 0.00 92 1015.3
20190422103242 17 139 6.4 17.7 0.00 0.00 0.00 92 1015.3
20190422103135 17 178 6.4 17.7 0.00 0.00 0.00 92 1015.3
20190422103042 17 175 4.8 17.7 0.00 0.00 0.00 92 1015.3
20190422102934 17 162 4.8 14.5 0.00 0.00 0.00 92 1015.4
20190422102846 17 174 3.2 14.5 0.00 0.00 0.00 92 1015.4
20190422102738 17 165 3.2 14.5 0.00 0.00 0.00 92 1015.3
20190422102631 17 160 4.8 14.5 0.00 0.00 0.00 92 1015.3
20190422102540 17 172 4.8 14.5 0.00 0.00 0.00 92 1015.3
20190422102437 17 160 4.8 14.5 0.00 0.00 0.00 92 1015.3
20190422102348 17 158 3.2 14.5 0.00 0.00 0.00 92 1015.3
20190422102241 17 176 4.8 14.5 0.00 0.00 0.00 92 1015.3
20190422102133 17 170 3.2 12.9 0.00 0.00 0.00 92 1015.3
20190422102041 17 201 4.8 14.5 0.00 0.00 0.00 92 1015.3
20190422101934 17 177 4.8 14.5 0.00 0.00 0.00 92 1015.3
20190422101846 17 155 4.8 14.5 0.00 0.00 0.00 92 1015.3
20190422101738 17 166 6.4 14.5 0.00 0.00 0.00 92 1015.3
20190422101634 17 238 4.8 14.5 0.00 0.00 0.00 92 1015.3
20190422101542 17 160 3.2 14.5 0.00 0.00 0.00 92 1015.3
20190422101433 17 193 6.4 14.5 0.00 0.00 0.00 92 1015.4
20190422101345 17 172 4.8 14.5 0.00 0.00 0.00 92 1015.4
20190422101238 17 210 3.2 14.5 0.00 0.00 0.00 92 1015.4
20190422101131 17 158 3.2 11.3 0.00 0.00 0.00 92 1015.4
20190422101039 17 167 4.8 11.3 0.00 0.00 0.00 92 1015.4
20190422100931 17 221 4.8 11.3 0.00 0.00 0.00 92 1015.5
20190422100843 17 230 3.2 16.1 0.00 0.00 0.00 92 1015.5
20190422100740 17 148 1.6 16.1 0.00 0.00 0.00 92 1015.5
20190422100633 17 168 3.2 16.1 0.00 0.00 0.00 92 1015.4
20190422100540 17 167 3.2 16.1 0.00 0.00 0.00 92 1015.4
20190422100434 17 181 3.2 16.1 0.00 0.00 0.00 92 1015.4
20190422100345 17 223 3.2 16.1 0.00 0.00 0.00 92 1015.5
20190422100238 17 158 3.2 16.1 0.00 0.00 0.00 92 1015.5
20190422100130 17 165 4.8 16.1 0.00 0.00 0.00 92 1015.5
20190422100040 17 156 4.8 16.1 0.00 0.00 0.00 92 1015.5
20190422095934 17 174 3.2 12.9 0.00 0.00 0.00 92 1015.4
20190422095846 17 131 3.2 12.9 0.00 0.00 0.00 92 1015.4
20190422095740 17 176 3.2 12.9 0.00 0.00 0.00 92 1015.4
20190422095633 17 164 4.8 12.9 0.00 0.00 0.00 92 1015.3
20190422095541 17 139 4.8 12.9 0.00 0.00 0.00 92 1015.3
20190422095434 17 182 6.4 12.9 0.00 0.00 0.00 92 1015.3
20190422095346 17 160 6.4 12.9 0.00 0.00 0.00 92 1015.3
20190422095239 17 162 4.8 12.9 0.00 0.00 0.00 92 1015.3
20190422095135 17 172 4.8 12.9 0.00 0.00 0.00 92 1015.3
20190422095042 17 344 3.2 12.9 0.00 0.00 0.00 92 1015.3
20190422094935 17 165 3.2 12.9 0.00 0.00 0.00 92 1015.3
20190422094847 17 199 4.8 12.9 0.00 0.00 0.00 92 1015.3
20190422094740 17 148 4.8 12.9 0.00 0.00 0.00 92 1015.3
20190422094633 17 169 4.8 12.9 0.00 0.00 0.00 92 1015.3
20190422094543 17 162 3.2 12.9 0.00 0.00 0.00 92 1015.3
20190422094434 17 139 1.6 11.3 0.00 0.00 0.00 92 1015.3
20190422094330 17 120 3.2 11.3 0.00 0.00 0.00 92 1015.3
20190422094243 17 167 1.6 11.3 0.00 0.00 0.00 92 1015.3
20190422094135 17 182 1.6 11.3 0.00 0.00 0.00 92 1015.2
20190422094043 17 158 3.2 11.3 0.00 0.00 0.00 92 1015.2
20190422093935 17 173 4.8 11.3 0.00 0.00 0.00 92 1015.2
20190422093847 17 157 4.8 11.3 0.00 0.00 0.00 92 1015.1
20190422093740 17 108 3.2 11.3 0.00 0.00 0.00 92 1015.1
20190422093633 17 175 3.2 11.3 0.00 0.00 0.00 92 1015.2
20190422093545 17 148 3.2 11.3 0.00 0.00 0.00 92 1015.1
20190422093438 17 154 3.2 11.3 0.00 0.00 0.00 92 1015.2
20190422093331 17 188 3.2 11.3 0.00 0.00 0.00 92 1015.1
20190422093244 17 162 4.8 11.3 0.00 0.00 0.00 92 1015.1
20190422093137 17 148 6.4 11.3 0.00 0.00 0.00 92 1015.1
20190422093044 17 163 4.8 11.3 0.00 0.00 0.00 92 1015.1
20190422092935 17 165 3.2 9.7 0.00 0.00 0.00 92 1015.1
20190422092848 17 158 3.2 9.7 0.00 0.00 0.00 92 1015.1
20190422092747 17 191 1.6 9.7 0.00 0.00 0.00 92 1015.1
20190422092637 17 164 1.6 9.7 0.00 0.00 0.00 92 1015.1
20190422092545 17 177 1.6 9.7 0.00 0.00 0.00 92 1015.1
20190422092438 17 183 3.2 9.7 0.00 0.00 0.00 92 1015.0
20190422092331 17 144 3.2 9.7 0.00 0.00 0.00 92 1015.0
20190422092244 17 145 4.8 9.7 0.00 0.00 0.00 92 1015.0
20190422092136 17 167 4.8 9.7 0.00 0.00 0.00 92 1015.0
20190422092046 17 216 4.8 9.7 0.00 0.00 0.00 92 1014.9
20190422091853 17 175 4.8 9.7 0.00 0.00 0.00 92 1015.0
20190422091550 17 243 3.2 11.3 0.00 0.00 0.00 92 1014.9
20190422091445 17 159 3.2 11.3 0.00 0.00 0.00 92 1015.0
20190422091330 17 173 4.8 14.5 0.00 0.00 0.00 92 1015.0
20190422091243 17 158 3.2 14.5 0.00 0.00 0.00 92 1015.0
20190422091140 17 217 3.2 14.5 0.00 0.00 0.00 92 1015.0
20190422091048 17 174 4.8 14.5 0.00 0.00 0.00 92 1015.0
20190422090940 17 87 3.2 14.5 0.00 0.00 0.00 92 1015.0
20190422090833 17 160 3.2 14.5 0.00 0.00 0.00 92 1015.0
20190422090745 17 163 4.8 14.5 0.00 0.00 0.00 92 1015.1
20190422090638 17 218 6.4 14.5 0.00 0.00 0.00 92 1015.1
20190422090546 17 194 6.4 14.5 0.00 0.00 0.00 92 1015.1
20190422090438 17 179 4.8 11.3 0.00 0.00 0.00 92 1015.1
20190422090334 17 166 4.8 14.5 0.00 0.00 0.00 92 1015.1
20190422090246 17 122 4.8 14.5 0.00 0.00 0.00 92 1015.1
20190422090139 17 213 4.8 14.5 0.00 0.00 0.00 92 1015.0
20190422090047 17 169 3.2 14.5 0.00 0.00 0.00 92 1015.0
20190422085937 17 172 1.6 14.5 0.00 0.00 0.00 92 1015.0
20190422085830 17 178 3.2 14.5 0.00 0.00 0.00 92 1015.0
20190422085742 17 172 4.8 14.5 0.00 0.00 0.00 92 1015.0
20190422085635 17 136 3.2 14.5 0.00 0.00 0.00 92 1015.0
20190422085542 17 217 3.2 11.3 0.00 0.00 0.00 92 1015.1
20190422085440 17 169 3.2 12.9 0.00 0.00 0.00 92 1015.1
20190422085331 17 160 3.2 12.9 0.00 0.00 0.00 92 1015.2
20190422085244 17 165 3.2 12.9 0.00 0.00 0.00 92 1015.2
20190422085136 17 174 3.2 12.9 0.00 0.00 0.00 92 1015.2
20190422085045 17 184 3.2 12.9 0.00 0.00 0.00 91 1015.2
20190422084938 17 259 1.6 12.9 0.00 0.00 0.00 91 1015.2
20190422084832 17 150 3.2 12.9 0.00 0.00 0.00 91 1015.2
20190422084744 17 153 4.8 12.9 0.00 0.00 0.00 91 1015.2
20190422084640 17 164 4.8 12.9 0.00 0.00 0.00 91 1015.2
20190422084549 17 174 3.2 11.3 0.00 0.00 0.00 91 1015.2
20190422084440 17 143 4.8 11.3 0.00 0.00 0.00 91 1015.2
20190422084333 17 180 4.8 11.3 0.00 0.00 0.00 91 1015.2
20190422084246 17 138 4.8 11.3 0.00 0.00 0.00 91 1015.1
20190422084139 17 156 4.8 11.3 0.00 0.00 0.00 91 1015.1
20190422084047 17 179 4.8 11.3 0.00 0.00 0.00 91 1015.1
20190422083939 17 174 6.4 11.3 0.00 0.00 0.00 91 1015.1
20190422083835 17 183 6.4 11.3 0.00 0.00 0.00 91 1015.1
20190422083729 17 156 4.8 11.3 0.00 0.00 0.00 91 1015.1
20190422083643 17 155 3.2 11.3 0.00 0.00 0.00 91 1015.1
20190422083532 17 135 1.6 8.0 0.00 0.00 0.00 91 1015.0
20190422083445 17 144 1.6 8.0 0.00 0.00 0.00 91 1015.0
20190422083337 17 144 1.6 8.0 0.00 0.00 0.00 91 1015.0
20190422083230 17 147 3.2 8.0 0.00 0.00 0.00 91 1015.0
20190422083143 17 150 3.2 11.3 0.00 0.00 0.00 91 1015.0
20190422083032 17 137 3.2 11.3 0.00 0.00 0.00 91 1015.0
20190422082945 17 169 1.6 11.3 0.00 0.00 0.00 91 1015.0
20190422082839 17 199 0.0 11.3 0.00 0.00 0.00 90 1015.0
20190422082731 17 162 1.6 12.9 0.00 0.00 0.00 90 1015.0
20190422082644 18 141 3.2 12.9 0.00 0.00 0.00 90 1015.0
20190422082532 18 274 3.2 12.9 0.00 0.00 0.00 90 1015.0
20190422082445 18 183 3.2 12.9 0.00 0.00 0.00 90 1015.0
20190422082337 18 172 3.2 12.9 0.00 0.00 0.00 90 1015.1
20190422082233 18 150 3.2 12.9 0.00 0.00 0.00 90 1015.1
20190422082146 18 167 4.8 12.9 0.00 0.00 0.00 90 1015.1
20190422082034 18 174 6.4 12.9 0.00 0.00 0.00 90 1015.1
20190422081948 18 103 4.8 12.9 0.00 0.00 0.00 90 1015.2
20190422081840 18 205 3.2 12.9 0.00 0.00 0.00 90 1015.2
20190422081733 18 179 4.8 11.3 0.00 0.00 0.00 90 1015.2
20190422081646 18 160 4.8 11.3 0.00 0.00 0.00 90 1015.3
20190422081535 18 186 3.2 9.7 0.00 0.00 0.00 90 1015.3
20190422081431 18 165 3.2 9.7 0.00 0.00 0.00 90 1015.3
20190422081344 18 179 1.6 9.7 0.00 0.00 0.00 90 1015.3
20190422081236 18 199 1.6 9.7 0.00 0.00 0.00 90 1015.3
20190422081129 18 155 1.6 11.3 0.00 0.00 0.00 90 1015.3
20190422081037 18 169 3.2 11.3 0.00 0.00 0.00 90 1015.3
20190422080929 18 189 3.2 11.3 0.00 0.00 0.00 90 1015.4
20190422080842 18 158 3.2 11.3 0.00 0.00 0.00 90 1015.4
20190422080734 18 160 4.8 11.3 0.00 0.00 0.00 90 1015.4
20190422080632 18 167 4.8 16.1 0.00 0.00 0.00 90 1015.5
20190422080539 18 175 4.8 16.1 0.00 0.00 0.00 90 1015.5
20190422080433 18 170 4.8 16.1 0.00 0.00 0.00 89 1015.5
20190422080346 18 163 3.2 16.1 0.00 0.00 0.00 89 1015.4
20190422080238 18 195 3.2 16.1 0.00 0.00 0.00 89 1015.5
20190422080131 18 159 4.8 16.1 0.00 0.00 0.00 89 1015.5
20190422080041 18 169 4.8 16.1 0.00 0.00 0.00 89 1015.5
20190422075931 18 172 6.4 16.1 0.00 0.00 0.00 89 1015.5
20190422075848 18 186 6.4 16.1 0.00 0.00 0.00 89 1015.5
20190422075741 18 149 4.8 14.5 0.00 0.00 0.00 89 1015.6
20190422075634 18 200 4.8 14.5 0.00 0.00 0.00 89 1015.6
20190422075542 18 184 4.8 14.5 0.00 0.00 0.00 89 1015.6
20190422075434 18 147 4.8 14.5 0.00 0.00 0.00 89 1015.6
20190422075346 18 167 4.8 14.5 0.00 0.00 0.00 89 1015.6
20190422075238 18 135 4.8 14.5 0.00 0.00 0.00 89 1015.6
20190422075130 18 226 4.8 14.5 0.00 0.00 0.00 89 1015.7
20190422075042 18 23 4.8 14.5 0.00 0.00 0.00 89 1015.7
20190422074934 18 185 4.8 14.5 0.00 0.00 0.00 89 1015.6
20190422074847 18 172 4.8 14.5 0.00 0.00 0.00 89 1015.6
20190422074739 18 160 3.2 14.5 0.00 0.00 0.00 89 1015.6
20190422074632 18 170 3.2 12.9 0.00 0.00 0.00 89 1015.6
20190422074540 18 162 4.8 12.9 0.00 0.00 0.00 89 1015.6
20190422074431 18 162 3.2 12.9 0.00 0.00 0.00 89 1015.5
20190422074344 18 184 3.2 12.9 0.00 0.00 0.00 89 1015.5
20190422074241 18 154 4.8 12.9 0.00 0.00 0.00 89 1015.5
20190422074133 18 152 4.8 11.3 0.00 0.00 0.00 89 1015.5
20190422074041 18 178 4.8 11.3 0.00 0.00 0.00 89 1015.5
20190422073933 18 160 4.8 11.3 0.00 0.00 0.00 89 1015.5
20190422073846 18 150 4.8 11.3 0.00 0.00 0.00 89 1015.5
20190422073738 18 180 4.8 11.3 0.00 0.00 0.00 89 1015.5
20190422073632 18 161 3.2 11.3 0.00 0.00 0.00 89 1015.5
20190422073539 18 134 3.2 9.7 0.00 0.00 0.00 89 1015.5
20190422073435 18 137 4.8 14.5 0.00 0.00 0.00 89 1015.5
20190422073330 18 226 3.2 14.5 0.00 0.00 0.00 89 1015.6
20190422073243 18 159 4.8 17.7 0.00 0.00 0.00 89 1015.6
20190422073136 18 176 3.2 17.7 0.00 0.00 0.00 89 1015.5
20190422073043 18 191 3.2 17.7 0.00 0.00 0.00 89 1015.6
20190422072935 18 157 3.2 17.7 0.00 0.00 0.00 89 1015.5
20190422072848 18 287 4.8 17.7 0.00 0.00 0.00 89 1015.5
20190422072741 18 169 6.4 17.7 0.00 0.00 0.00 89 1015.5
20190422072637 18 134 6.4 17.7 0.00 0.00 0.00 89 1015.5
20190422072545 18 175 6.4 17.7 0.00 0.00 0.00 89 1015.5
20190422072438 18 160 6.4 17.7 0.00 0.00 0.00 89 1015.5
20190422072329 18 176 8.0 14.5 0.00 0.00 0.00 89 1015.5
20190422072243 18 167 6.4 14.5 0.00 0.00 0.00 89 1015.5
20190422072136 18 180 3.2 14.5 0.00 0.00 0.00 88 1015.6
20190422072044 18 183 3.2 14.5 0.00 0.00 0.00 88 1015.6
20190422071934 18 169 4.8 14.5 0.00 0.00 0.00 88 1015.6
20190422071831 18 165 4.8 14.5 0.00 0.00 0.00 88 1015.6
20190422071744 18 163 6.4 14.5 0.00 0.00 0.00 88 1015.6
20190422071636 18 133 6.4 14.5 0.00 0.00 0.00 88 1015.6
20190422071545 18 224 4.8 14.5 0.00 0.00 0.00 88 1015.6
20190422071435 18 176 4.8 14.5 0.00 0.00 0.00 88 1015.7
20190422071348 18 158 3.2 14.5 0.00 0.00 0.00 88 1015.6
20190422071241 18 156 4.8 14.5 0.00 0.00 0.00 88 1015.7
20190422071133 18 172 4.8 14.5 0.00 0.00 0.00 88 1015.6
20190422071041 18 145 3.2 14.5 0.00 0.00 0.00 88 1015.7
20190422070937 18 191 3.2 14.5 0.00 0.00 0.00 88 1015.7
20190422070829 18 125 4.8 14.5 0.00 0.00 0.00 88 1015.7
20190422070742 18 150 4.8 14.5 0.00 0.00 0.00 88 1015.7
20190422070655 18 131 4.8 14.5 0.00 0.00 0.00 88 1015.8
20190422070603 18 180 6.4 14.5 0.00 0.00 0.00 88 1015.8
20190422070435 18 144 4.8 14.5 0.00 0.00 0.00 88 1015.8
20190422070348 18 172 3.2 14.5 0.00 0.00 0.00 88 1015.9
20190422070241 18 169 1.6 14.5 0.00 0.00 0.00 88 1015.9
20190422070138 18 183 3.2 14.5 0.00 0.00 0.00 88 1015.9
20190422070047 18 174 4.8 14.5 0.00 0.00 0.00 88 1015.9
20190422065938 18 184 4.8 14.5 0.00 0.00 0.00 88 1015.9
20190422065831 18 153 3.2 14.5 0.00 0.00 0.00 88 1015.9
20190422065744 18 172 4.8 14.5 0.00 0.00 0.00 88 1015.9
20190422065638 18 91 3.2 14.5 0.00 0.00 0.00 88 1015.9
20190422065546 18 179 3.2 11.3 0.00 0.00 0.00 88 1016.0
20190422065437 18 167 4.8 11.3 0.00 0.00 0.00 88 1015.9
20190422065334 18 174 4.8 11.3 0.00 0.00 0.00 88 1016.0
20190422065247 18 167 3.2 11.3 0.00 0.00 0.00 88 1015.9
20190422065139 18 167 3.2 11.3 0.00 0.00 0.00 88 1015.9
20190422065047 18 176 4.8 11.3 0.00 0.00 0.00 88 1015.8
20190422064939 18 166 3.2 11.3 0.00 0.00 0.00 88 1015.9
20190422064833 18 161 3.2 14.5 0.00 0.00 0.00 88 1015.9
20190422064746 18 179 3.2 14.5 0.00 0.00 0.00 88 1015.9
20190422064639 18 176 3.2 14.5 0.00 0.00 0.00 88 1015.9
20190422064529 18 169 3.2 14.5 0.00 0.00 0.00 88 1015.9
20190422064441 18 167 3.2 14.5 0.00 0.00 0.00 88 1015.9
20190422064334 18 172 4.8 14.5 0.00 0.00 0.00 88 1016.0
20190422064246 18 164 4.8 14.5 0.00 0.00 0.00 88 1016.0
20190422064139 18 159 4.8 14.5 0.00 0.00 0.00 88 1016.1
20190422064047 18 172 6.4 14.5 0.00 0.00 0.00 88 1016.0
20190422063940 18 153 8.0 14.5 0.00 0.00 0.00 88 1016.0
20190422063833 18 159 8.0 14.5 0.00 0.00 0.00 88 1016.1
20190422063729 18 148 6.4 12.9 0.00 0.00 0.00 88 1016.1
20190422063642 18 179 4.8 12.9 0.00 0.00 0.00 88 1016.1
20190422063531 18 144 4.8 12.9 0.00 0.00 0.00 88 1016.1
20190422063440 18 264 4.8 14.5 0.00 0.00 0.00 88 1016.1
20190422063332 18 138 4.8 14.5 0.00 0.00 0.00 88 1016.1
20190422063244 18 161 4.8 14.5 0.00 0.00 0.00 88 1016.1
20190422063136 18 167 4.8 14.5 0.00 0.00 0.00 88 1016.1
20190422063044 18 166 4.8 14.5 0.00 0.00 0.00 88 1016.1
20190422062935 18 184 4.8 14.5 0.00 0.00 0.00 88 1016.1
20190422062914 18 180 4.8 14.5 0.00 0.00 0.00 88 1016.1
20190422062908 18 163 6.4 14.5 0.00 0.00 0.00 87 1016.1
20190422062901 18 181 4.8 14.5 0.00 0.00 0.00 87 1016.1
20190422062656 18 165 3.2 14.5 0.00 0.00 0.00 87 1016.2
20190422062439 18 184 4.8 14.5 0.00 0.00 0.00 87 1016.1
20190422062331 18 189 4.8 14.5 0.00 0.00 0.00 87 1016.1
20190422062244 18 154 3.2 14.5 0.00 0.00 0.00 87 1016.1
20190422062137 18 169 3.2 14.5 0.00 0.00 0.00 87 1016.1
20190422062029 18 160 4.8 14.5 0.00 0.00 0.00 87 1016.1
20190422061942 18 179 4.8 14.5 0.00 0.00 0.00 87 1016.1
20190422061834 18 150 4.8 16.1 0.00 0.00 0.00 87 1016.2
20190422061747 18 162 3.2 16.1 0.00 0.00 0.00 87 1016.2
20190422061640 18 180 3.2 16.1 0.00 0.00 0.00 87 1016.3
20190422061548 18 172 3.2 16.1 0.00 0.00 0.00 87 1016.3
20190422061438 18 172 4.8 16.1 0.00 0.00 0.00 87 1016.3
20190422061331 18 147 6.4 16.1 0.00 0.00 0.00 87 1016.4
20190422061248 18 169 4.8 16.1 0.00 0.00 0.00 87 1016.4
20190422061140 18 226 4.8 16.1 0.00 0.00 0.00 87 1016.5
20190422061048 18 167 4.8 16.1 0.00 0.00 0.00 87 1016.5
20190422060941 18 141 4.8 16.1 0.00 0.00 0.00 88 1016.4
20190422060833 18 176 4.8 11.3 0.00 0.00 0.00 88 1016.4
20190422060746 18 174 3.2 11.3 0.00 0.00 0.00 88 1016.4
20190422060638 18 179 4.8 11.3 0.00 0.00 0.00 88 1016.4
20190422060545 18 166 4.8 11.3 0.00 0.00 0.00 88 1016.4
20190422060442 18 174 3.2 9.7 0.00 0.00 0.00 88 1016.5
20190422060335 18 167 3.2 9.7 0.00 0.00 0.00 88 1016.5
20190422060248 18 163 3.2 12.9 0.00 0.00 0.00 88 1016.5
20190422060141 18 160 3.2 12.9 0.00 0.00 0.00 88 1016.6
20190422060049 18 175 3.2 12.9 0.00 0.00 0.00 88 1016.5
20190422055940 18 146 1.6 12.9 0.00 0.00 0.00 88 1016.6
20190422055832 18 164 1.6 12.9 0.00 0.00 0.00 88 1016.6
20190422055745 18 174 1.6 12.9 0.00 0.00 0.00 88 1016.6
20190422055641 18 162 3.2 12.9 0.00 0.00 0.00 88 1016.6
20190422055529 18 171 4.8 16.1 0.00 0.00 0.00 88 1016.6
20190422055442 18 184 3.2 16.1 0.00 0.00 0.00 88 1016.6
20190422055334 18 194 1.6 16.1 0.00 0.00 0.00 87 1016.7
20190422055246 18 169 3.2 16.1 0.00 0.00 0.00 87 1016.6
20190422055139 18 174 4.8 16.1 0.00 0.00 0.00 87 1016.6
20190422055047 18 164 6.4 16.1 0.00 0.00 0.00 88 1016.6
20190422054938 18 160 6.4 16.1 0.00 0.00 0.00 88 1016.6
20190422054835 18 144 6.4 16.1 0.00 0.00 0.00 88 1016.6
20190422054748 18 162 8.0 16.1 0.00 0.00 0.00 87 1016.6
20190422054641 18 231 8.0 16.1 0.00 0.00 0.00 87 1016.6
20190422054548 18 186 4.8 12.9 0.00 0.00 0.00 88 1016.5
20190422054440 18 168 3.2 12.9 0.00 0.00 0.00 88 1016.6
20190422054334 18 175 3.2 12.9 0.00 0.00 0.00 88 1016.5
20190422054246 18 181 4.8 12.9 0.00 0.00 0.00 88 1016.6
20190422054137 18 184 6.4 12.9 0.00 0.00 0.00 87 1016.5
20190422054044 18 165 4.8 12.9 0.00 0.00 0.00 88 1016.6
20190422053941 18 208 3.2 11.3 0.00 0.00 0.00 88 1016.5
20190422053834 18 169 4.8 11.3 0.00 0.00 0.00 88 1016.5
20190422053746 18 236 4.8 11.3 0.00 0.00 0.00 88 1016.5
20190422053638 18 188 4.8 11.3 0.00 0.00 0.00 88 1016.5
20190422053547 18 175 4.8 11.3 0.00 0.00 0.00 88 1016.6
20190422053440 18 169 4.8 11.3 0.00 0.00 0.00 88 1016.6
20190422053333 18 165 4.8 11.3 0.00 0.00 0.00 88 1016.7
20190422053229 18 172 4.8 12.9 0.00 0.00 0.00 88 1016.6
20190422053144 18 157 3.2 14.5 0.00 0.00 0.00 88 1016.6
20190422053029 18 155 3.2 16.1 0.00 0.00 0.00 88 1016.6
20190422052942 18 173 4.8 16.1 0.00 0.00 0.00 88 1016.6
20190422052835 18 165 4.8 16.1 0.00 0.00 0.00 88 1016.6
20190422052748 18 161 4.8 16.1 0.00 0.00 0.00 88 1016.5
20190422052640 18 166 4.8 16.1 0.00 0.00 0.00 87 1016.6
20190422052548 18 165 6.4 16.1 0.00 0.00 0.00 87 1016.6
20190422052441 18 170 8.0 16.1 0.00 0.00 0.00 87 1016.5
20190422052338 18 84 8.0 16.1 0.00 0.00 0.00 87 1016.6
20190422052231 18 153 6.4 16.1 0.00 0.00 0.00 87 1016.5
20190422052144 18 112 4.8 16.1 0.00 0.00 0.00 87 1016.5
20190422052032 18 167 4.8 12.9 0.00 0.00 0.00 87 1016.4
20190422051944 18 174 4.8 12.9 0.00 0.00 0.00 87 1016.4
20190422051837 18 206 4.8 12.9 0.00 0.00 0.00 87 1016.4
20190422051730 18 193 6.4 12.9 0.00 0.00 0.00 87 1016.5
20190422051643 18 153 6.4 12.9 0.00 0.00 0.00 87 1016.5
20190422051535 18 186 4.8 12.9 0.00 0.00 0.00 87 1016.5
20190422051445 18 172 4.8 12.9 0.00 0.00 0.00 87 1016.5
20190422051338 18 200 4.8 12.9 0.00 0.00 0.00 87 1016.5
20190422051230 18 169 4.8 12.9 0.00 0.00 0.00 87 1016.5
20190422051144 18 168 4.8 16.1 0.00 0.00 0.00 87 1016.5
20190422051033 18 163 4.8 16.1 0.00 0.00 0.00 87 1016.5
20190422050947 18 175 6.4 16.1 0.00 0.00 0.00 87 1016.5
20190422050840 18 207 6.4 20.9 0.00 0.00 0.00 87 1016.4
20190422050737 18 186 4.8 20.9 0.00 0.00 0.00 87 1016.4
20190422050629 18 165 3.2 20.9 0.00 0.00 0.00 87 1016.5
20190422050537 18 155 3.2 20.9 0.00 0.00 0.00 87 1016.5
20190422050429 18 171 6.4 20.9 0.00 0.00 0.00 87 1016.5
20190422050343 18 172 8.0 20.9 0.00 0.00 0.00 87 1016.5
20190422050235 18 142 6.4 20.9 0.00 0.00 0.00 87 1016.5
20190422050149 18 139 8.0 20.9 0.00 0.00 0.00 87 1016.4
20190422050056 18 171 6.4 20.9 0.00 0.00 0.00 87 1016.5
20190422045943 18 191 3.2 14.5 0.00 0.00 0.00 87 1016.4
20190422045836 18 161 3.2 14.5 0.00 0.00 0.00 87 1016.4
20190422045729 18 166 4.8 14.5 0.00 0.00 0.00 87 1016.4
20190422045641 18 155 6.4 14.5 0.00 0.00 0.00 87 1016.4
20190422045529 18 235 4.8 14.5 0.00 0.00 0.00 87 1016.5
20190422045443 18 155 4.8 14.5 0.00 0.00 0.00 87 1016.5
20190422045336 18 160 4.8 14.5 0.00 0.00 0.00 87 1016.5
20190422045230 18 174 4.8 14.5 0.00 0.00 0.00 87 1016.5
20190422045146 18 172 4.8 14.5 0.00 0.00 0.00 87 1016.5
20190422045034 18 150 6.4 14.5 0.00 0.00 0.00 87 1016.5
20190422044948 18 91 4.8 14.5 0.00 0.00 0.00 87 1016.5
20190422044841 18 175 3.2 14.5 0.00 0.00 0.00 87 1016.6
20190422044734 18 191 3.2 14.5 0.00 0.00 0.00 87 1016.6
20190422044646 18 166 4.8 14.5 0.00 0.00 0.00 87 1016.6
20190422044532 18 172 6.4 16.1 0.00 0.00 0.00 87 1016.6
20190422044445 18 174 6.4 16.1 0.00 0.00 0.00 87 1016.6
20190422044342 18 167 4.8 16.1 0.00 0.00 0.00 87 1016.6
20190422044235 18 158 6.4 16.1 0.00 0.00 0.00 87 1016.6
20190422044129 18 190 4.8 16.1 0.00 0.00 0.00 87 1016.6
20190422044037 18 149 4.8 16.1 0.00 0.00 0.00 87 1016.6
20190422043929 18 169 6.4 16.1 0.00 0.00 0.00 87 1016.6
20190422043842 18 236 8.0 16.1 0.00 0.00 0.00 87 1016.6
20190422043735 18 120 6.4 16.1 0.00 0.00 0.00 87 1016.5
20190422043648 18 180 4.8 12.9 0.00 0.00 0.00 87 1016.6
20190422043540 18 160 4.8 12.9 0.00 0.00 0.00 87 1016.6
20190422043433 18 153 3.2 12.9 0.00 0.00 0.00 87 1016.6
20190422043346 18 158 4.8 12.9 0.00 0.00 0.00 87 1016.6
20190422043238 18 176 3.2 12.9 0.00 0.00 0.00 87 1016.6
20190422043130 18 157 4.8 12.9 0.00 0.00 0.00 87 1016.5
20190422043038 18 169 6.4 12.9 0.00 0.00 0.00 87 1016.5
20190422042949 18 125 6.4 12.9 0.00 0.00 0.00 87 1016.5
20190422042838 18 159 6.4 12.9 0.00 0.00 0.00 87 1016.5
20190422042736 18 219 4.8 16.1 0.00 0.00 0.00 87 1016.4
20190422042648 18 174 4.8 16.1 0.00 0.00 0.00 87 1016.4
20190422042536 18 171 4.8 16.1 0.00 0.00 0.00 87 1016.5
20190422042448 18 130 1.6 16.1 0.00 0.00 0.00 87 1016.5
20190422042341 18 159 4.8 16.1 0.00 0.00 0.00 87 1016.5
20190422042234 18 172 4.8 16.1 0.00 0.00 0.00 87 1016.5
20190422042146 18 131 6.4 16.1 0.00 0.00 0.00 87 1016.5
20190422042034 18 148 8.0 16.1 0.00 0.00 0.00 87 1016.5
20190422041931 18 182 4.8 16.1 0.00 0.00 0.00 87 1016.4
20190422041844 18 143 4.8 14.5 0.00 0.00 0.00 87 1016.4
20190422041736 18 146 4.8 14.5 0.00 0.00 0.00 87 1016.5
20190422041629 18 175 4.8 14.5 0.00 0.00 0.00 87 1016.4
20190422041538 18 146 4.8 14.5 0.00 0.00 0.00 87 1016.4
20190422041448 18 165 6.4 14.5 0.00 0.00 0.00 87 1016.5